Flag for Germany Weather past 2 weeks in Landau in der Pfalz, Rhineland-Palatinate, Germany

Now
84 °F

Sunny.


Feels Like: 82 °F
Forecast: 55 / 89 °F
Wind: 3 mph from North

Location: Baden Wurttemberg - Neuostheim

Current Time: Aug 2, 2015 at 10:21:21 PM

Latest Report: Aug 2, 2015 at 8:20 PM


Visibility: 10 mi

Pressure: 30.01 "Hg

Humidity: 29%

Dew point: 48 °F

Location of Landau in der PfalzLocation

Historic Weather in Landau in der Pfalz — Graph

°F

Landau in der Pfalz temperature yesterday

Maximum temperature yesterday: 79 °F (at 4:20 PM)
Minimum temperature yesterday: 59 °F (at 6:50 AM)
Average temperature yesterday: 71 °F

Past Weeks' High & Low Weather Summary

 TemperatureHumidityPressure
High93 °F (Jul 22, 3:50 PM)100% (Jul 19, 2:50 PM)30.12 "Hg (Jul 19, 2:50 PM)
Low50 °F (Jul 30, 5:50 AM)23% (Jul 30, 5:50 PM)29.65 "Hg (Jul 24, 7:50 PM)
Average73 °F53%29.92 "Hg
* Reported Jul 19 7:50 AM — Aug 2 8:20 PM, Landau in der Pfalz, Weather by CustomWeather, © 2015

Note: Actual official high and low records may vary slightly from our data, if they occured in-between our weather recording intervals... More about our weather records

Advertising

Landau in der Pfalz weather history for previous 24 hours

 ConditionsComfort  
Time TempWeatherWind HumidityBarometerVisibility
8:20 PM
Sun, Aug 2
84 °FSunny.3 mph29%30.01 "Hg10 mi
7:50 PM84 °FSunny.2 mph29%30.01 "Hg10 mi
7:20 PM84 °FPassing clouds.5 mph29%30.04 "HgN/A
6:50 PM86 °FSunny.3 mph27%30.04 "Hg10 mi
6:20 PM86 °FPassing clouds.6 mph27%30.04 "HgN/A
5:50 PM86 °FSunny.3 mph27%30.04 "Hg10 mi
5:20 PM84 °FPassing clouds.6 mph29%30.04 "HgN/A
4:50 PM84 °FPassing clouds.6 mph29%30.04 "HgN/A
4:20 PM86 °FSunny.5 mph27%30.04 "Hg10 mi
3:50 PM84 °FPassing clouds.6 mph31%30.07 "HgN/A
3:20 PM84 °FSunny.5 mph29%30.07 "Hg10 mi
2:50 PM84 °FPassing clouds.5 mph29%30.07 "HgN/A
2:20 PM82 °FSunny.6 mph30%30.09 "Hg10 mi
1:50 PM81 °FSunny.5 mph34%30.09 "Hg10 mi
1:20 PM81 °FSunny.3 mph34%30.09 "Hg10 mi
12:50 PM81 °FSunny.3 mph34%30.09 "Hg10 mi
12:20 PM79 °FSunny.3 mph39%30.09 "Hg10 mi
11:50 AM77 °FSunny.2 mph42%30.12 "Hg10 mi
11:20 AM75 °FPassing clouds.5 mph41%30.12 "HgN/A
10:50 AM73 °FSunny.2 mph50%30.12 "Hg10 mi
10:20 AM72 °FSunny.3 mph50%30.12 "Hg10 mi
9:50 AM70 °FSunny.3 mph57%30.12 "Hg10 mi
9:20 AM70 °FSunny.2 mph64%30.12 "Hg10 mi
8:50 AM66 °FSunny.2 mph73%30.09 "Hg10 mi
8:20 AM64 °FSunny.3 mph78%30.09 "Hg10 mi
7:50 AM63 °FSunny.3 mph83%30.09 "Hg10 mi
10:50 PM
Sat, Aug 1
70 °FClear.3 mph60%30.01 "Hg10 mi
Weather by CustomWeather, © 2015

See weather overviewHow to use our weather pages